User: anonymous   Login
Location: La Pernelle
(49.6188°N, 1.2999°W)
Time: 23:30:00
(UTC+00:00)
Language:

FENGYUN 1C DEB - Orbit

View from above orbital plane
View from above orbital plane
View from above satellite
View from above satellite

Ground track
Ground track

The orbit data is extracted from the following two-line orbital elements,

1 31098U 99025BGU 22027.87865308  .00001642  00000-0  74841-3 0  9994
2 31098  98.9086  94.4307 0020208  84.2831 276.0650 14.22950781767980
Epoch (UTC): 27 January 2022 21:05:15
Eccentricity: 0.0020208
inclination: 98.9086°
perigee height: 801 km
apogee height: 830 km
right ascension of ascending node: 94.4307°
argument of perigee: 84.2831°
revolutions per day: 14.22950781
mean anomaly at epoch: 276.0650°
orbit number at epoch: 76798

The dashed part of the orbit path shows where the satellite is in the earth's shadow,  

DLR